When you browse on this site, cookies collect data to enhance your experience and personalize the content and advertising you see.
Visit our Privacy Policy to learn more. By continuing to use the site, you agree to this use of cookies and data.
  • In Hungary
  • List of Countries
  • For 7 days
  • Water Temperature
  • Satellite Maps
  • Weather Map
  • News
  • Weather Widgets
  • user-avatar
    Login

    Hourly Weather Szeged

    Today, 20 January, Sunday

    Time Temperature Precipitation Wind Pressure Humidity
    00:00 +1°C° 0.4 mm 2 mps 756 mmHg 87%
    01:00 +1°C° 0.4 mm 2 mps 756 mmHg 88%
    02:00 +1°C° 0.5 mm 2 mps 755 mmHg 89%
    03:00 +1°C° 0.5 mm 2 mps 755 mmHg 90%
    04:00 +1°C° 0.5 mm 2 mps 755 mmHg 91%
    05:00 +1°C° 0.5 mm 2 mps 754 mmHg 93%
    06:00 +1°C° 0.5 mm 2 mps 754 mmHg 94%
    07:00 +1°C° 0.5 mm 2 mps 754 mmHg 95%
    08:00 +1°C° 0.5 mm 2 mps 754 mmHg 96%
    09:00 +1°C° 0.5 mm 2 mps 754 mmHg 97%
    10:00 +1°C° 0.5 mm 2 mps 754 mmHg 98%
    11:00 +1°C° 0.6 mm 2 mps 754 mmHg 99%
    12:00 +2°C° 0.6 mm 1 mps 754 mmHg 99%
    13:00 +2°C° 0.6 mm 1 mps 754 mmHg 100%
    14:00 +2°C° 0.1 mm 1 mps 754 mmHg 99%
    15:00 +2°C° 0.1 mm 1 mps 754 mmHg 99%
    16:00 +2°C° 0.1 mm 1 mps 754 mmHg 99%
    17:00 +2°C° 0 mm 1 mps 755 mmHg 99%
    18:00 +1°C° 0 mm 2 mps 755 mmHg 99%
    19:00 +1°C° 0 mm 2 mps 755 mmHg 99%
    20:00 -1°C° 0 mm 2 mps 755 mmHg 98%
    21:00 -1°C° 0 mm 2 mps 756 mmHg 97%
    22:00 -1°C° 0 mm 2 mps 756 mmHg 96%
    23:00 -1°C° 0 mm 2 mps 756 mmHg 96%

    Tomorrow, 21 January, Monday

    Time Temperature Precipitation Wind Pressure Humidity
    00:00 -1°C° 0 mm 2 mps 757 mmHg 96%
    01:00 -1°C° 0 mm 2 mps 757 mmHg 96%
    02:00 -1°C° 0 mm 2 mps 757 mmHg 95%
    03:00 -1°C° 0 mm 2 mps 757 mmHg 95%
    04:00 +1°C° 0 mm 1 mps 757 mmHg 95%
    05:00 +1°C° 0 mm 1 mps 757 mmHg 95%
    06:00 +1°C° 0 mm 1 mps 758 mmHg 95%
    07:00 +1°C° 0 mm 1 mps 758 mmHg 94%
    08:00 -1°C° 0 mm 2 mps 758 mmHg 93%
    09:00 -1°C° 0 mm 2 mps 759 mmHg 91%
    10:00 -1°C° 0 mm 2 mps 759 mmHg 89%
    11:00 -1°C° 0 mm 2 mps 759 mmHg 86%
    12:00 -1°C° 0 mm 2 mps 759 mmHg 82%
    13:00 -1°C° 0 mm 2 mps 759 mmHg 79%
    14:00 -1°C° 0 mm 2 mps 759 mmHg 81%
    15:00 -2°C° 0 mm 2 mps 759 mmHg 82%
    16:00 -3°C° 0 mm 2 mps 759 mmHg 84%
    17:00 -1°C° 0 mm 1 mps 759 mmHg 84%
    18:00 -1°C° 0 mm 1 mps 759 mmHg 85%
    19:00 -2°C° 0 mm 1 mps 759 mmHg 86%
    20:00 -2°C° 0 mm 1 mps 759 mmHg 86%
    21:00 -2°C° 0 mm 1 mps 759 mmHg 86%
    22:00 -2°C° 0 mm 1 mps 759 mmHg 86%
    23:00 -2°C° 0 mm 1 mps 759 mmHg 86%

    Day after tomorrow, 22 January, Tuesday

    Time Temperature Precipitation Wind Pressure Humidity
    00:00 -2°C° 0 mm 1 mps 759 mmHg 86%
    01:00 -2°C° 0 mm 1 mps 758 mmHg 86%
    02:00 -2°C° 0 mm 1 mps 758 mmHg 86%
    03:00 -2°C° 0 mm 1 mps 758 mmHg 87%
    04:00 -2°C° 0 mm 1 mps 757 mmHg 87%
    05:00 -4°C° 0 mm 2 mps 757 mmHg 87%
    06:00 -4°C° 0 mm 2 mps 757 mmHg 87%
    07:00 -3°C° 0 mm 2 mps 756 mmHg 87%
    08:00 -3°C° 0 mm 2 mps 756 mmHg 87%
    09:00 -2°C° 0 mm 2 mps 756 mmHg 87%
    10:00 -2°C° 0 mm 2 mps 755 mmHg 87%
    11:00 -1°C° 0.1 mm 3 mps 755 mmHg 89%
    12:00 -1°C° 0.1 mm 3 mps 754 mmHg 90%
    13:00 0°C° 0.1 mm 3 mps 753 mmHg 92%
    14:00 0°C° 0.2 mm 3 mps 752 mmHg 93%
    15:00 0°C° 0.2 mm 3 mps 751 mmHg 93%
    16:00 -1°C° 0.2 mm 3 mps 751 mmHg 94%
    17:00 0°C° 0.3 mm 3 mps 750 mmHg 94%
    18:00 0°C° 0.3 mm 3 mps 749 mmHg 94%
    19:00 0°C° 0.3 mm 3 mps 749 mmHg 94%
    20:00 0°C° 0.1 mm 3 mps 748 mmHg 94%
    21:00 0°C° 0.1 mm 3 mps 747 mmHg 95%
    22:00 0°C° 0.1 mm 3 mps 747 mmHg 95%
    23:00 0°C° 0 mm 3 mps 746 mmHg 95%

    23 January, Wednesday

    Time Temperature Precipitation Wind Pressure Humidity
    00:00 0°C° 0 mm 3 mps 745 mmHg 95%
    01:00 -1°C° 0 mm 4 mps 745 mmHg 95%
    02:00 0°C° 0.4 mm 3 mps 744 mmHg 94%
    03:00 0°C° 0.4 mm 3 mps 743 mmHg 94%
    04:00 0°C° 0.4 mm 3 mps 742 mmHg 94%
    05:00 0°C° 0.3 mm 3 mps 742 mmHg 94%
    06:00 0°C° 0.3 mm 3 mps 742 mmHg 94%
    07:00 0°C° 0.3 mm 3 mps 741 mmHg 94%
    08:00 +1°C° 0.2 mm 3 mps 741 mmHg 95%
    09:00 +1°C° 0.2 mm 3 mps 741 mmHg 96%
    10:00 +1°C° 0.2 mm 3 mps 741 mmHg 97%
    11:00 +2°C° 0.1 mm 3 mps 741 mmHg 97%
    12:00 +2°C° 0.1 mm 3 mps 741 mmHg 97%
    13:00 +2°C° 0.1 mm 3 mps 740 mmHg 97%
    14:00 +2°C° 0.1 mm 3 mps 741 mmHg 97%
    15:00 +2°C° 0.1 mm 3 mps 741 mmHg 97%
    16:00 +2°C° 0.1 mm 3 mps 741 mmHg 97%
    17:00 +1°C° 0.1 mm 3 mps 741 mmHg 97%
    18:00 +1°C° 0.1 mm 3 mps 742 mmHg 97%
    19:00 0°C° 0.1 mm 3 mps 742 mmHg 97%
    20:00 0°C° 0 mm 3 mps 743 mmHg 96%
    21:00 0°C° 0 mm 3 mps 743 mmHg 96%
    22:00 0°C° 0 mm 3 mps 744 mmHg 96%
    23:00 +1°C° 0 mm 2 mps 744 mmHg 95%

    24 January, Thursday

    Time Temperature Precipitation Wind Pressure Humidity
    00:00 -1°C° 0 mm 2 mps 744 mmHg 94%
    01:00 -1°C° 0 mm 2 mps 744 mmHg 93%
    02:00 +1°C° 0 mm 1 mps 744 mmHg 93%
    03:00 +1°C° 0 mm 1 mps 744 mmHg 92%
    04:00 -1°C° 0 mm 0 mps 744 mmHg 92%
    05:00 0°C° 0 mm 1 mps 745 mmHg 92%
    06:00 0°C° 0 mm 1 mps 745 mmHg 92%
    07:00 0°C° 0 mm 1 mps 745 mmHg 93%
    08:00 -1°C° 0 mm 2 mps 745 mmHg 92%
    09:00 +1°C° 0 mm 2 mps 745 mmHg 92%
    10:00 +2°C° 0 mm 2 mps 746 mmHg 91%
    11:00 +2°C° 0 mm 3 mps 746 mmHg 91%
    12:00 +2°C° 0 mm 3 mps 745 mmHg 91%
    13:00 +3°C° 0 mm 3 mps 745 mmHg 90%
    14:00 +1°C° 0 mm 4 mps 745 mmHg 92%
    15:00 0°C° 0 mm 4 mps 745 mmHg 94%
    16:00 0°C° 0 mm 5 mps 745 mmHg 95%
    17:00 0°C° 0 mm 5 mps 745 mmHg 95%
    18:00 -2°C° 0 mm 6 mps 744 mmHg 94%
    19:00 -2°C° 0 mm 6 mps 744 mmHg 94%
    20:00 -2°C° 0 mm 6 mps 744 mmHg 93%
    21:00 -2°C° 0 mm 6 mps 744 mmHg 91%
    22:00 -2°C° 0 mm 6 mps 744 mmHg 90%
    23:00 -1°C° 0.6 mm 6 mps 744 mmHg 89%

    25 January, Friday

    Time Temperature Precipitation Wind Pressure Humidity
    00:00 -1°C° 0.6 mm 7 mps 744 mmHg 88%
    01:00 -1°C° 0.6 mm 7 mps 744 mmHg 87%
    02:00 -1°C° 1.2 mm 7 mps 743 mmHg 88%
    03:00 -1°C° 1.2 mm 7 mps 743 mmHg 88%
    04:00 -1°C° 1.2 mm 7 mps 743 mmHg 89%
    05:00 -1°C° 1.4 mm 7 mps 743 mmHg 89%
    06:00 -1°C° 1.4 mm 6 mps 743 mmHg 90%
    07:00 -1°C° 1.4 mm 6 mps 744 mmHg 90%
    08:00 -1°C° 1.3 mm 6 mps 744 mmHg 90%
    09:00 -1°C° 1.3 mm 6 mps 744 mmHg 90%
    10:00 -1°C° 1.3 mm 7 mps 745 mmHg 90%
    11:00 -1°C° 0.7 mm 7 mps 745 mmHg 91%
    12:00 -1°C° 0.7 mm 6 mps 745 mmHg 92%
    13:00 -1°C° 0.7 mm 6 mps 745 mmHg 93%
    14:00 -1°C° 0.7 mm 6 mps 745 mmHg 93%
    15:00 -1°C° 0.7 mm 6 mps 746 mmHg 92%
    16:00 -1°C° 0.7 mm 6 mps 746 mmHg 92%
    17:00 -1°C° 0.9 mm 7 mps 746 mmHg 92%
    18:00 -1°C° 0.9 mm 7 mps 747 mmHg 91%
    19:00 -1°C° 0.9 mm 7 mps 747 mmHg 90%
    20:00 -1°C° 0.6 mm 8 mps 748 mmHg 89%
    21:00 -1°C° 0.6 mm 8 mps 748 mmHg 89%
    22:00 -1°C° 0.6 mm 8 mps 748 mmHg 88%
    23:00 -2°C° 0.4 mm 8 mps 749 mmHg 87%
    Show more